Перигё

Франция     45°10′57″N   0°43′09″E
темп.,
°C
ветер,
м/с
пор.,
м/с
влажн.,
%
обл.,
%
осадки,
мм/ч
давл.,
гПа
погр.,
м
22 апреля, чт
чт2223:00+8вюв37962 0.1 1015131
02:00+7в27955 0.1 1016143
05:00+6в36956 0.0 1016116
08:00+6в279041 0.0 1017174
11:00+15вюв57485 0.0 10171032
14:00+19юв45393 0.0 10171800
17:00+21ююв34351 0.0 10161772
20:00+17в115416 0.0 101611
23 апреля, пт
пт2323:00+13ююв2260100 0.0 101940
02:00+12ююв007270 0.0 102010
05:00+9св22880 0.0 102013
08:00+9в24860 0.0 102090
11:00+18вюв23500 0.0 1019617
14:00+22юв34340 0.0 10181746
17:00+23юв34320 0.0 10171873
20:00+19ююв11535 0.0 101711
24 апреля, сб
сб2423:00+12юв11695 0.0 101911
02:00+10вюв2379100 0.0 101943
05:00+9вюв387888 0.0 1019133
08:00+9вюв3127195 0.0 1019258
11:00+18юв584017 0.0 1018788
14:00+22юв463254 0.0 10171416
17:00+24юв453032 0.0 10161839
20:00+18ююв2257100 0.0 101616
25 апреля, вс
вс2523:00+13юв2755100 0.0 1017138
02:00+12в3860100 0.0 1017224
05:00+10в2866100 0.0 1015162
08:00+10в296864 0.0 1015228
11:00+18вюв5744100 0.0 1014687
14:00+21юв5638100 0.0 10131249
17:00+21юв674486 0.0 10111238
20:00+19в366127 0.0 1010161
26 апреля, пн
пн2623:00+11вюв31085100 0.6 1011218
02:00+10в2891100 1.5 1010150
05:00+10вюв2789100 0.4 1009159
08:00+10вюв31089100 0.6 1009350
11:00+15ююв4671100 0.1 1009693
14:00+19ю346494 0.3 10071303
17:00+15ю368998 2.4 1006219
20:00+14ююз3892100 5.3 1006346